Simultaneous Nadir Overpasses (SNOs) Predictions

Prediction of SNOs between GOES-14 and NOAA-20 Satellite Orbit:

Table of predicted SNOs for the next 14.0 days since TLE Epoch: 4/27/2024
Index Date Time (GOES-14) GOES-14 Lat,Lon NOAA-20 Lat,Lon Distance(km) Time Diff (sec)
1 04/28/2024 20:41:24 -0.17,-108.63 -0.31,-109.33 80.06 80
2 04/29/2024 20:25:17 -0.17,-108.63 0.68,-104.79 437.24 80
3 05/01/2024 08:47:03 0.16,-108.62 0.51,-110.05 164.26 80
4 05/02/2024 08:25:37 0.18,-108.61 -0.54,-105.53 352.68 80
5 05/03/2024 20:47:30 -0.16,-108.62 -0.68,-110.82 250.46 80
6 05/04/2024 20:31:24 -0.17,-108.63 0.32,-106.28 267.13 80
7 05/06/2024 08:53:10 0.15,-108.63 0.79,-111.56 333.21 80
8 05/07/2024 08:31:44 0.16,-108.63 -0.21,-107.02 183.75 80
9 05/08/2024 20:53:37 -0.14,-108.63 -0.98,-112.31 420.56 80
10 05/09/2024 20:37:31 -0.15,-108.63 0.04,-107.78 96.80 80
